[[{"header":{"parameterUnit":"m.s-1","parameterCategory":1,"la1":30.2991,"la2":30.254,"lo1":-89.0895,"lo2":-89.0444,"dy":0.0017,"dx":0.0017,"nx":28,"ny":28,"refTime":"2025-07-27T03:00:00:Z","depth":0,"parameterNumber":2,"parameterNumberName":"U-component_of_WINDS"},"data":[0,0,0,0,0,0,0,0,0,0,0,0,0,0,0,0,0,0,0,0,0,0,0,0,0,0,0,0,0,0,0,0,0,0,0,0,0,0,0,0,0,0,0,0,0,0,0,0,0,0,0,0,0,0,0,0,0,0,-1.3754,-1.3753,0,-1.3674,-1.3673,-1.3673,-1.3633,-1.3633,-1.3633,-1.3633,-1.355,-1.3548,-1.3546,0,0,0,0,0,0,0,0,0,0,0,0,0,-1.3871,-1.3869,-1.3754,-1.3753,-1.3752,-1.3674,-1.3673,-1.3672,-1.3633,-1.3633,-1.3633,-1.3633,-1.3551,-1.3548,-1.3546,0,0,0,0,0,0,0,0,0,0,0,0,0,-1.3809,-1.3869,-1.3754,-1.3723,-1.372,-1.3675,-1.3673,-1.3672,-1.3633,-1.3633,-1.3633,-1.3633,-1.3552,-1.3549,-1.3545,-1.3525,0,0,-1.3535,-1.3534,0,0,0,0,0,0,0,0,-1.3813,-1.3805,-1.3729,-1.3725,-1.3721,-1.3664,-1.3684,-1.3623,-1.3633,-1.3666,-1.3633,-1.3633,-1.3588,-1.3582,-1.3567,-1.3521,-1.3517,-1.3535,-1.3533,-1.3531,-1.353,0,0,0,0,0,0,0,-1.3817,-1.3808,-1.3722,-1.3728,-1.3723,-1.3713,-1.3704,-1.3672,-1.3628,-1.3663,-1.366,-1.3651,-1.3586,-1.357,-1.3564,-1.3516,-1.3535,-1.3532,-1.353,-1.3529,-1.3449,-1.3449,0,0,0,0,0,0,-1.3826,-1.3812,-1.3725,-1.372,-1.3768,-1.3711,-1.3701,-1.3682,-1.3628,-1.362,-1.3651,-1.365,-1.3576,-1.3568,-1.3561,-1.3533,-1.3531,-1.3528,-1.3526,-1.3449,-1.3449,-1.3449,0,0,0,0,0,0,-1.3829,-1.3819,-1.3728,-1.3765,-1.3753,-1.3709,-1.3688,-1.3681,-1.3665,-1.3619,-1.3611,-1.3643,-1.3575,-1.3566,-1.3534,-1.353,-1.3527,-1.3524,-1.345,-1.3449,-1.3449,-1.3478,0,0,0,0,0,0,-1.3833,-1.382,-1.3812,-1.3765,-1.3751,-1.3703,-1.3688,-1.3679,-1.3659,-1.3656,-1.361,-1.3602,-1.3575,-1.3539,-1.3531,-1.3525,-1.3521,-1.345,-1.3449,-1.3449,-1.3477,-1.3479,-1.348,0,0,0,0,0,-1.3837,-1.3823,-1.3812,-1.3802,-1.374,-1.3703,-1.3694,-1.3664,-1.3659,-1.365,-1.3621,-1.3603,-1.3532,-1.3536,-1.3527,-1.352,-1.345,-1.345,-1.3449,-1.3476,-1.3478,-1.348,0,0,0,0,0,0,-1.387,-1.3816,-1.3803,-1.3774,-1.3743,-1.3696,-1.3684,-1.3667,-1.3637,-1.3635,-1.3598,-1.3588,-1.3559,-1.3537,-1.3542,-1.3497,-1.3489,-1.3487,-1.3513,-1.3515,-1.3516,-1.3522,-1.3518,0,0,0,0,0,-1.3874,-1.3849,-1.3803,-1.3781,-1.3767,-1.3728,-1.3711,-1.369,-1.3657,-1.3643,-1.3612,-1.358,-1.355,-1.3531,-1.3501,-1.3474,-1.3463,-1.3465,-1.3466,-1.3468,-1.3466,-1.345,-1.345,-1.3448,-1.3448,-1.3448,0,0,-1.3882,-1.3849,-1.3835,-1.3787,-1.3761,-1.3735,-1.3717,-1.3691,-1.3671,-1.3639,-1.3607,-1.3583,-1.3545,-1.3515,-1.35,-1.3495,-1.3464,-1.3467,-1.3469,-1.3466,-1.3449,-1.3449,-1.345,-1.3448,-1.3448,-1.3448,0,0,-1.3882,-1.3855,-1.3834,-1.3809,-1.377,-1.3744,-1.3739,-1.3695,-1.3678,-1.3646,-1.3621,-1.3597,-1.3547,-1.352,-1.3501,-1.3492,-1.3474,-1.3484,-1.3491,-1.3476,-1.3476,-1.3476,-1.3473,-1.3472,-1.3482,-1.3482,-1.3482,0,-1.3897,-1.3857,-1.3826,-1.3801,-1.378,-1.3751,-1.3729,-1.3705,-1.3658,-1.3645,-1.364,-1.3576,-1.3549,-1.3512,-1.3511,-1.3495,-1.3488,-1.3488,-1.3479,-1.3478,-1.3478,-1.3474,-1.3473,-1.3484,-1.3484,-1.3483,-1.3483,0,-1.3877,-1.385,-1.3837,-1.3793,-1.3771,-1.3748,-1.3713,-1.3695,-1.3676,-1.3652,-1.3619,-1.3585,-1.3548,-1.3538,-1.3519,-1.3499,-1.3497,-1.3486,-1.3477,-1.348,-1.3476,-1.3474,-1.3486,-1.3485,-1.3485,-1.3484,0,0,-1.3895,-1.3835,-1.3831,-1.381,-1.3765,-1.3744,-1.3719,-1.3683,-1.3668,-1.3637,-1.3615,-1.3574,-1.3564,-1.3541,-1.3519,-1.3506,-1.3502,-1.3496,-1.3495,-1.3498,-1.3477,-1.3485,-1.3484,-1.349,-1.349,-1.3489,-1.348,0,-1.3889,-1.3844,-1.3816,-1.3782,-1.3757,-1.3729,-1.3707,-1.3677,-1.3654,-1.3629,-1.3602,-1.3573,-1.3562,-1.3548,-1.3534,-1.3505,-1.3497,-1.3506,-1.3469,-1.3468,-1.3479,-1.3482,-1.3491,-1.3484,-1.3479,-1.3478,-1.3478,0,-1.3876,-1.3846,-1.381,-1.3768,-1.3757,-1.3738,-1.3703,-1.368,-1.3645,-1.3629,-1.3604,-1.3582,-1.3555,-1.3549,-1.3511,-1.3518,-1.3501,-1.3485,-1.3484,-1.3479,-1.3473,-1.3477,-1.3481,-1.348,-1.3475,-1.3476,-1.3476,0,-1.3893,-1.3844,-1.3816,-1.3799,-1.375,-1.3737,-1.3716,-1.3682,-1.3662,-1.3632,-1.3618,-1.3585,-1.3567,-1.3541,-1.3511,-1.3509,-1.3476,-1.3467,-1.3461,-1.3462,-1.3455,-1.3455,-1.3456,-1.3445,-1.3445,-1.3445,-1.3445,0,-1.3889,-1.3868,-1.3823,-1.3806,-1.3781,-1.3749,-1.3725,-1.3702,-1.3671,-1.3649,-1.3623,-1.3602,-1.3564,-1.3538,-1.3514,-1.3486,-1.3478,-1.3464,-1.3458,-1.3466,-1.3468,-1.3454,-1.3454,-1.3445,-1.3445,-1.3445,-1.3445,0,-1.3904,-1.3872,-1.384,-1.3796,-1.3785,-1.3769,-1.3731,-1.3713,-1.3688,-1.366,-1.3652,-1.3613,-1.3582,-1.3549,-1.3507,-1.3491,-1.3464,-1.3455,-1.3475,-1.3472,-1.3467,-1.3468,-1.3459,-1.3456,-1.3448,-1.3448,-1.3448,0,-1.3903,-1.3886,-1.3841,-1.3824,-1.3803,-1.3777,-1.3757,-1.3724,-1.3705,-1.3664,-1.3651,-1.3619,-1.359,-1.3542,-1.351,-1.3477,-1.3467,-1.3466,-1.3462,-1.3471,-1.3467,-1.3468,-1.3466,-1.3468,-1.3468,-1.3468,-1.3468,0,-1.3905,-1.3891,-1.3863,-1.383,-1.3808,-1.378,-1.3752,-1.3739,-1.3701,-1.368,-1.3649,-1.3627,-1.3584,-1.3551,-1.3515,-1.3493,-1.3474,-1.347,-1.3467,-1.3475,-1.3487,-1.348,-1.3479,-1.347,-1.347,-1.347,-1.347,-1.347,-1.3912,-1.3896,-1.3861,-1.3831,-1.3807,-1.3781,-1.3762,-1.3735,-1.3708,-1.3671,-1.3653,-1.3622,-1.3588,-1.3537,-1.3515,-1.349,-1.3484,-1.348,-1.3478,-1.3478,-1.348,-1.3492,-1.3483,-1.3483,-1.3483,-1.3483,-1.3483,0,-1.3912,-1.3889,-1.3862,-1.3823,-1.38,-1.3785,-1.3753,-1.3734,-1.3707,-1.3677,-1.365,-1.3613,-1.3582,-1.3548,-1.3514,-1.35,-1.3491,-1.3492,-1.3493,-1.3488,-1.3487,-1.3493,-1.35,-1.35,-1.35,-1.35,-1.35,-1.35,-1.391,-1.3882,-1.3863,-1.3823,-1.3799,-1.3768,-1.3751,-1.3727,-1.3703,-1.3663,-1.3637,-1.3616,-1.3584,-1.3548,-1.3518,-1.3509,-1.3498,-1.3502,-1.349,-1.3489,-1.3488,-1.3487,-1.3492,-1.35,-1.35,-1.3493,-1.3493,-1.3493]},{"header":{"parameterUnit":"m.s-1","parameterCategory":1,"la1":30.2991,"la2":30.254,"lo1":-89.0895,"lo2":-89.0444,"dy":0.0017,"dx":0.0017,"nx":28,"ny":28,"refTime":"2025-07-27T03:00:00:Z","depth":0,"parameterNumber":3,"parameterNumberName":"V-component_of_WINDS"},"data":[0,0,0,0,0,0,0,0,0,0,0,0,0,0,0,0,0,0,0,0,0,0,0,0,0,0,0,0,0,0,0,0,0,0,0,0,0,0,0,0,0,0,0,0,0,0,0,0,0,0,0,0,0,0,0,0,0,0,3.7648,3.7647,0,3.7583,3.7582,3.7582,3.7511,3.751,3.7509,3.7508,3.7438,3.7438,3.7437,0,0,0,0,0,0,0,0,0,0,0,0,0,3.7708,3.7707,3.7648,3.7647,3.7646,3.7583,3.7582,3.7581,3.7511,3.751,3.7509,3.7508,3.7439,3.7438,3.7437,0,0,0,0,0,0,0,0,0,0,0,0,0,3.7666,3.7707,3.7648,3.7604,3.7599,3.7583,3.7582,3.7581,3.7511,3.751,3.7508,3.7507,3.7439,3.7438,3.7436,3.7458,0,0,3.7432,3.7432,0,0,0,0,0,0,0,0,3.7669,3.7664,3.7611,3.7607,3.7602,3.7554,3.7578,3.754,3.7512,3.7545,3.7508,3.7506,3.7478,3.7473,3.7464,3.7455,3.7452,3.7432,3.7431,3.7431,3.743,0,0,0,0,0,0,0,3.7672,3.7667,3.7622,3.761,3.7605,3.7586,3.7579,3.757,3.752,3.7542,3.7536,3.753,3.7475,3.7466,3.7462,3.7451,3.7432,3.7431,3.743,3.743,3.7455,3.7456,0,0,0,0,0,0,3.7682,3.767,3.7624,3.762,3.7632,3.7586,3.7578,3.757,3.752,3.7511,3.7531,3.7527,3.7469,3.7464,3.7459,3.7481,3.7431,3.7429,3.7429,3.7454,3.7455,3.7457,0,0,0,0,0,0,3.7683,3.7678,3.7627,3.7643,3.7635,3.7587,3.7579,3.757,3.7561,3.7512,3.7503,3.7531,3.7467,3.7461,3.7459,3.7477,3.7429,3.7428,3.7452,3.7454,3.7456,3.7525,0,0,0,0,0,0,3.7685,3.7679,3.7688,3.7644,3.7635,3.7629,3.758,3.757,3.7559,3.7553,3.751,3.7501,3.7466,3.7461,3.7458,3.7475,3.7426,3.745,3.7453,3.7455,3.7521,3.7529,3.7536,0,0,0,0,0,3.7688,3.7709,3.7689,3.7684,3.7645,3.763,3.7624,3.7584,3.7561,3.7568,3.7537,3.7503,3.7476,3.7462,3.7457,3.7474,3.7449,3.7452,3.7455,3.7517,3.7527,3.7536,0,0,0,0,0,0,3.7755,3.7703,3.7679,3.7687,3.7664,3.7618,3.7626,3.7596,3.7578,3.7573,3.7522,3.7513,3.7517,3.7495,3.748,3.7492,3.7457,3.746,3.7506,3.7515,3.7523,3.7528,3.7425,0,0,0,0,0,3.7771,3.7765,3.7719,3.773,3.772,3.7675,3.7667,3.7639,3.7612,3.7601,3.757,3.7544,3.753,3.7521,3.7506,3.7517,3.7506,3.7526,3.7534,3.7541,3.7544,3.7548,3.7556,3.7468,3.7468,3.7468,0,0,3.7804,3.7774,3.7773,3.7743,3.7721,3.7715,3.7667,3.7662,3.7657,3.76,3.7596,3.7572,3.754,3.7545,3.7545,3.7527,3.7566,3.7545,3.7551,3.755,3.7552,3.756,3.7568,3.747,3.747,3.747,0,0,3.786,3.7837,3.7844,3.7824,3.7792,3.7762,3.7764,3.7723,3.7705,3.7701,3.7658,3.765,3.7627,3.7606,3.7592,3.764,3.7608,3.7637,3.7677,3.7682,3.7689,3.7695,3.7712,3.7718,3.7639,3.764,3.764,0,3.7904,3.7893,3.7851,3.7849,3.7837,3.7786,3.7792,3.7774,3.7739,3.7731,3.7711,3.7681,3.7655,3.7654,3.7666,3.7657,3.7657,3.7641,3.7692,3.7697,3.7702,3.7717,3.7724,3.7643,3.7643,3.7643,3.7642,0,3.7949,3.7942,3.7952,3.792,3.7909,3.7911,3.7868,3.7861,3.7834,3.7806,3.7802,3.777,3.7747,3.7744,3.7717,3.7739,3.7729,3.7701,3.7665,3.7715,3.7728,3.7734,3.7649,3.7647,3.7646,3.7645,0,0,3.8045,3.799,3.7994,3.7979,3.7941,3.7934,3.7934,3.7912,3.7908,3.7885,3.7882,3.7864,3.7838,3.7823,3.7792,3.7796,3.7836,3.7767,3.7766,3.7781,3.7859,3.788,3.7887,3.7814,3.7815,3.7816,3.7861,0,3.8094,3.8091,3.8053,3.8061,3.8054,3.8006,3.8005,3.7981,3.7955,3.7944,3.7915,3.7903,3.787,3.786,3.7862,3.7831,3.7851,3.7827,3.7811,3.7811,3.782,3.7895,3.7917,3.7961,3.7866,3.7867,3.7868,0,3.815,3.8132,3.814,3.8101,3.8096,3.8097,3.8074,3.8065,3.8036,3.8017,3.8,3.7966,3.7962,3.7929,3.7921,3.7906,3.7897,3.7881,3.7881,3.7878,3.7842,3.7893,3.7974,3.7981,3.7876,3.7875,3.7875,0,3.822,3.8197,3.8198,3.8187,3.8142,3.8143,3.8124,3.8094,3.8083,3.8063,3.8056,3.8035,3.8023,3.8007,3.7968,3.7948,3.7965,3.7929,3.7948,3.795,3.7954,3.7954,3.8035,3.7949,3.7949,3.7949,3.7949,0,3.8278,3.8284,3.8229,3.823,3.8235,3.8191,3.8197,3.8173,3.8147,3.8141,3.8098,3.8094,3.8042,3.8032,3.8001,3.7999,3.7994,3.7978,3.7969,3.7982,3.7984,3.7975,3.7971,3.795,3.795,3.795,3.795,0,3.8356,3.8319,3.8317,3.8275,3.8265,3.8271,3.8234,3.8232,3.8204,3.8198,3.8194,3.8149,3.8134,3.8094,3.8068,3.8047,3.8054,3.8039,3.8065,3.8059,3.8081,3.8079,3.8158,3.8166,3.8076,3.8077,3.8078,0,3.8396,3.8399,3.8358,3.8352,3.8335,3.8326,3.8315,3.8272,3.8262,3.823,3.8232,3.8214,3.8198,3.8176,3.8141,3.8121,3.8104,3.8133,3.8101,3.8113,3.8104,3.8105,3.8105,3.814,3.8142,3.8143,3.8143,0,3.847,3.8451,3.8438,3.8419,3.8408,3.839,3.837,3.8367,3.8318,3.831,3.8295,3.8282,3.8257,3.824,3.8214,3.8193,3.816,3.8154,3.8157,3.817,3.8184,3.8177,3.8084,3.8152,3.8151,3.8151,3.815,3.815,3.8529,3.853,3.8502,3.8488,3.8469,3.8451,3.8448,3.842,3.8407,3.8384,3.8358,3.8346,3.8317,3.828,3.8261,3.825,3.8233,3.8238,3.8239,3.8241,3.8246,3.8187,3.8245,3.8245,3.8245,3.8245,3.8244,0,3.8601,3.858,3.8569,3.8542,3.8532,3.8503,3.8479,3.8472,3.8462,3.8438,3.8423,3.8406,3.8389,3.8352,3.8332,3.833,3.8314,3.8326,3.8325,3.8321,3.8263,3.8262,3.8339,3.8339,3.8339,3.8339,3.8339,3.8339,3.8637,3.8637,3.8616,3.8606,3.8584,3.8573,3.8562,3.8545,3.8526,3.8509,3.8495,3.8472,3.8442,3.8419,3.8402,3.8392,3.8386,3.8403,3.8387,3.8334,3.8325,3.8316,3.8315,3.8402,3.8402,3.8446,3.8446,3.8446]}]]